Regional Weather Roundup
Issued by NWS Charleston, SC

Current Version | Previous Version | Graphics & Text | Print | Product List | Glossary On
Versions: 1 2 3 4 5 6 7 8 9 10 11 12 13 14 15 16 17 18 19 20 21 22 23 24 25 26 27 28 29 30 31 32 33 34 35 36 37 38 39 40 41 42 43 44 45 46 47 48 49 50
000 ASUS42 KCHS 190310 RWRCHS REGIONAL WEATHER ROUNDUP NATIONAL WEATHER SERVICE CHARLESTON SC 1100 PM EDT THU SEP 18 2014 NOTE: "FAIR" INDICATES FEW OR NO CLOUDS BELOW 12,000 FEET WITH NO SIGNIFICANT WEATHER AND/OR OBSTRUCTIONS TO VISIBILITY. NOT ALL STATIONS ARE QUALITY CONTROLLED BY THE NATIONAL WEATHER SERVICE. USE DATA WITH CAUTION...ESPECIALLY DEWPOINT OBSERVATIONS. SCZ027-030-031-034>040-042>050-190400- ...SOUTH CAROLINA... CITY SKY/WX TMP DP RH WIND PRES REMARKS N CHARLESTON PTCLDY 74 70 87 NE3 29.99R WATERFRONT PRK N/A 79 N/A N/A E9 N/A FORT JOHNSON NOT AVBL MOUNT PLEASANT FAIR 72 72 100 CALM 29.99R FOG JOHNS ISLAND CLEAR 73 73 100 CALM 29.99R PINOPOLIS N/A 75 70 83 E2 29.93R MONCKS CORNER N/A 72 72 100 CALM 29.99S SUMMERVILLE FAIR 70 70 100 CALM 30.00S BEAUFORT MCAS MOCLDY 74 70 87 CALM 29.98R BEAUFORT ARPT FAIR 72 72 100 N3 29.98R HILTON HEAD IS MOCLDY 72 72 100 CALM 29.99R GEORGETOWN NOT AVBL WALTERBORO PTCLDY 70 N/A N/A CALM 30.00S ORANGEBURG PTCLDY 72 67 84 E3 30.01R BARNWELL FAIR 70 70 100 CALM 30.01R AIKEN FAIR 70 70 100 E3 30.05R MANNING FAIR 72 N/A N/A CALM 30.01R KINGSTREE NOT AVBL COLUMBIA PTCLDY 73 67 81 CALM 30.00R SUMTER PTCLDY 73 67 82 SE2 30.00R FLORENCE PTCLDY 71 67 87 E5 30.02R MYRTLE BEACH CLOUDY 79 66 65 E13G18 30.01R N MYRTLE BEACH CLEAR 72 65 78 NE7 30.01R $$ GAZ063-065-086>088-099>101-113>116-118-119-134-136>141-150-190400- ...GEORGIA... CITY SKY/WX TMP DP RH WIND PRES REMARKS SAVANNAH ARPT MOCLDY 75 68 78 NE6 29.98R HUNTER AAF MOCLDY 75 72 88 E2 29.95S FORT STEWART MOCLDY 75 72 89 CALM 29.96R STATESBORO NOT AVBL SYLVANIA MOCLDY 77 73 88 CALM 30.00R CLAXTON FAIR N/A N/A N/A CALM 29.98R THOMSON MOCLDY 72 72 100 CALM 30.05R AUGUSTA-BUSH PTCLDY 68 67 96 CALM 29.99R FOG AUGUSTA-DANIEL CLEAR 74 66 76 E3 30.01R SWAINSBORO FAIR 72 72 100 CALM 30.00R VIDALIA PTCLDY 73 72 94 CALM 29.99R ALMA MOCLDY 72 70 93 CALM 29.97R WAYCROSS MOCLDY 77 75 94 CALM 29.97R JESUP MOCLDY 77 75 94 CALM 29.97S BRUNSWICK N/A 73 72 94 CALM 29.97S VSB 3/4 SAINT SIMONS PTCLDY 80 71 74 SE3 29.96R $$ SCZ027-028-034-036>038-045-046-048>050-GAZ119-141-190400- ...LAKE AND SUPPLEMENTAL COASTAL OBSERVATIONS... STATION/POSITION TIME TEMP WIND PRES WAVE SWELL AIR SEA DIR/SP/G HT/PER HT/PER/DIR (UTC) (F) (DEG/KT/KT) (MB) (FT/S) (FT/S/D) UPR LAKE MARION NOT AVBL WINYAH BAY 0200 78 80/ 12 1015.0S LAKE MURRAY 0200 73 CALM / 1 1015.6R ACE BASIN NERRS 0200 71 CALM 1015.0S FORT PULASKI 0300 80 80/ 9/ 10 1015.0S SAPELO ISLAND 0200 77 130/ 3 1015.0R $$ ANZ835-935-AMZ111-154-330-350-352-354-374-450-454-472-190400- ...C-MAN AND BUOY OBSERVATIONS... STATION/POSITION TIME TEMP WIND PRES WAVE SWELL AIR SEA DIR/SP/G HT/PER HT/PER/DIR (UTC) (F) (DEG/KT/KT) (MB) (FT/S) (FT/S/D) FOLLY BEACH CMAN 0200 79 70/ 12/ 13 1015.4R BUOY 41004 0300 80 83 80/ 12/ 14 1014.8R 3/ 9 2/ 9 BUOY 41008 0300 82 84 130/ 8/ 10 1014.6R 2/12 2/ 90/12 5E ST. MARYS GA 0300 85 N/A 2/10 2/100/12 FRYING PAN BUOY NOT AVBL BUOY 41025 0300 73 20/ 12/ 16 1017.2R 4/11 3/ 60/11 CAPE LOOKOUT NC 0200 75 70/ 14/ 15 1016.8R BUOY 41002 0203 79 82 60/ 10/ 14 1015.8 3/ 9 3/100/ 9 BUOY 41010 0300 82 85 60/ 8/ 8 1014.4R 4/11 3/ 70/11 BUOY 41012 NOT AVBL ST AUGUSTINE FL 0300 79 280/ 1/ 2 1015.0R CAPERS NEARSHORE 0200 79 130/ 10/ 12 N/A FRIPP NEARSHORE NOT AVBL $$

USA.gov is the U.S. government's official web portal to all federal, state and local government web resources and services.